Location: A�t Lahcen
(32.8243°N, 5.4246°W)
Time: 00:35:00
(UTC+00:00)

Cosmos 836 Rocket - Pass Details

Date: 27 January 2021
Orbit: 758 x 777 km, 74.1° (Epoch: 26 February)

Event Time Altitude Azimuth Distance (km) Brightness Sun altitude
Rises 05:48:27 0° 196° (SSW) 3,231 7.7 -19.3°
Reaches altitude 10° 05:50:49 10° 197° (SSW) 2,306 6.9 -18.8°
Maximum altitude 05:56:04 87° 284° (WNW) 774 4.4 -17.7°
Drops below altitude 10° 06:01:19 10° 16° (NNE) 2,307 7.0 -16.6°
Sets 06:03:41 0° 17° (NNE) 3,233 7.8 -16.1°
